N974TA -KSAN

Flight info

Callsign N974TA
Flight time N/A
Altitude
Route
Aircraft C172/L-VD/A

Departure

Time N/A
Airport -

Arrival

Time 2026-04-26 18:25
Airport San Diego International Airport (KSAN)
Time Latitude Longitude Altitude Speed Heading
2026-04-26 18:24 32.73413 -117.17974 22 ft 0 kts 290°
2026-04-26 18:25 32.73412 -117.17968 22 ft 1 kts 289°
2026-04-26 18:25 32.73410 -117.17962 22 ft 1 kts 269°
2026-04-26 18:25 32.73413 -117.17956 22 ft 1 kts 219°
2026-04-26 18:26 32.73414 -117.17955 22 ft 0 kts 204°
2026-04-26 18:26 32.73413 -117.17955 22 ft 0 kts 201°
2026-04-26 18:28 32.73408 -117.17956 22 ft 5 kts 150°
2026-04-26 18:28 32.73357 -117.17948 21 ft 0 kts 200°
2026-04-26 18:29 32.73303 -117.17973 20 ft 17 kts 205°
2026-04-26 18:29 32.73219 -117.17938 17 ft 15 kts 104°
2026-04-26 18:30 32.73192 -117.17752 18 ft 25 kts 96°
2026-04-26 18:30 32.73128 -117.17583 17 ft 12 kts 139°
2026-04-26 18:30 32.73087 -117.17546 17 ft 0 kts 141°
2026-04-26 18:31 32.73086 -117.17546 17 ft 0 kts 140°
2026-04-26 18:32 32.73066 -117.17531 18 ft 8 kts 158°
2026-04-26 18:32 32.73009 -117.17546 19 ft 2 kts 272°
2026-04-26 18:32 32.73010 -117.17548 19 ft 0 kts 285°
2026-04-26 18:32 32.73017 -117.17579 18 ft 18 kts 287°
2026-04-26 18:33 32.73089 -117.17881 42 ft 50 kts 287°
2026-04-26 18:33 32.73191 -117.18318 164 ft 57 kts 287°
2026-04-26 18:33 32.73320 -117.18824 281 ft 69 kts 287°
2026-04-26 18:33 32.73456 -117.19243 563 ft 56 kts 288°
2026-04-26 18:34 32.73590 -117.19583 776 ft 48 kts 288°
2026-04-26 18:34 32.73753 -117.20004 852 ft 64 kts 289°
2026-04-26 18:34 32.73955 -117.20544 914 ft 78 kts 289°
2026-04-26 18:34 32.74348 -117.21035 939 ft 99 kts 340°
2026-04-26 18:35 32.75095 -117.20932 1001 ft 113 kts
2026-04-26 18:35 32.75876 -117.20715 1071 ft 120 kts 18°
2026-04-26 18:35 32.76367 -117.19886 1091 ft 134 kts 78°
2026-04-26 18:35 32.76333 -117.18843 1142 ft 136 kts 94°
2026-04-26 18:36 32.76189 -117.17814 1251 ft 130 kts 96°
2026-04-26 18:36 32.76018 -117.16756 1325 ft 132 kts 97°
2026-04-26 18:36 32.75845 -117.15659 1386 ft 138 kts 98°
2026-04-26 18:36 32.75683 -117.14505 1413 ft 145 kts 98°
2026-04-26 18:37 32.75518 -117.13305 1398 ft 149 kts 98°
2026-04-26 18:37 32.75194 -117.12152 1384 ft 150 kts 129°
2026-04-26 18:37 32.74333 -117.11595 1390 ft 140 kts 179°
2026-04-26 18:37 32.73366 -117.11576 1383 ft 138 kts 185°
2026-04-26 18:38 32.72418 -117.11631 1377 ft 134 kts 191°
2026-04-26 18:38 32.71718 -117.12209 1345 ft 123 kts 247°
2026-04-26 18:38 32.71705 -117.13175 1341 ft 117 kts 284°
2026-04-26 18:38 32.72147 -117.13986 1309 ft 118 kts 290°
2026-04-26 18:39 32.72364 -117.14968 934 ft 129 kts 288°
2026-04-26 18:39 32.72608 -117.15901 578 ft 110 kts 284°
2026-04-26 18:39 32.72795 -117.16681 397 ft 87 kts 285°
2026-04-26 18:39 32.72952 -117.17306 193 ft 77 kts 287°
2026-04-26 18:40 32.73078 -117.17835 66 ft 54 kts 290°
2026-04-26 18:40 32.73171 -117.18208 19 ft 39 kts 292°
2026-04-26 18:40 32.73232 -117.18446 19 ft 24 kts 284°
2026-04-26 18:40 32.73260 -117.18563 20 ft 0 kts 281°
2026-04-26 18:41 32.73290 -117.18685 19 ft 36 kts 287°
2026-04-26 18:41 32.73383 -117.19110 66 ft 63 kts 281°
2026-04-26 18:41 32.73493 -117.19635 140 ft 76 kts 285°
2026-04-26 18:41 32.73662 -117.20225 226 ft 86 kts 287°
2026-04-26 18:42 32.73880 -117.20943 316 ft 91 kts 289°
2026-04-26 18:42 32.74140 -117.21322 342 ft 96 kts 327°
2026-04-26 18:42 32.74852 -117.21264 443 ft 106 kts
2026-04-26 18:42 32.75568 -117.21051 553 ft 106 kts 11°
2026-04-26 18:43 32.76054 -117.20384 654 ft 121 kts 73°
2026-04-26 18:43 32.76029 -117.19360 788 ft 125 kts 91°
2026-04-26 18:43 32.75957 -117.18331 916 ft 126 kts 92°
2026-04-26 18:43 32.75853 -117.17291 1006 ft 127 kts 93°
2026-04-26 18:44 32.75745 -117.16245 1119 ft 128 kts 94°
2026-04-26 18:44 32.75578 -117.15200 1206 ft 130 kts 101°
2026-04-26 18:44 32.75376 -117.14128 1252 ft 136 kts 103°
2026-04-26 18:44 32.75157 -117.13021 1263 ft 140 kts 103°
2026-04-26 18:45 32.74928 -117.11881 1276 ft 144 kts 103°
2026-04-26 18:45 32.74680 -117.10716 1282 ft 147 kts 104°
2026-04-26 18:45 32.74123 -117.09750 1265 ft 143 kts 152°
2026-04-26 18:45 32.73200 -117.09505 1272 ft 135 kts 181°
2026-04-26 18:46 32.72264 -117.09464 1273 ft 131 kts 192°
2026-04-26 18:46 32.71878 -117.10233 1233 ft 116 kts 266°
2026-04-26 18:46 32.71796 -117.11182 1258 ft 117 kts 274°
2026-04-26 18:46 32.71876 -117.12154 1257 ft 119 kts 275°
2026-04-26 18:47 32.71998 -117.13114 1245 ft 117 kts 281°
2026-04-26 18:47 32.72206 -117.13984 1211 ft 98 kts 283°
2026-04-26 18:47 32.72428 -117.14824 696 ft 105 kts 285°
2026-04-26 18:47 32.72588 -117.15546 665 ft 83 kts 282°
2026-04-26 18:48 32.72701 -117.16178 493 ft 71 kts 281°
2026-04-26 18:48 32.72810 -117.16703 324 ft 63 kts 284°
2026-04-26 18:48 32.72920 -117.17193 204 ft 61 kts 283°
2026-04-26 18:48 32.73034 -117.17665 95 ft 57 kts 288°
2026-04-26 18:49 32.73136 -117.18078 37 ft 44 kts 291°
2026-04-26 18:49 32.73206 -117.18334 19 ft 24 kts 286°
2026-04-26 18:49 32.73241 -117.18474 19 ft 16 kts 285°
2026-04-26 18:49 32.73294 -117.18712 51 ft 37 kts 289°
2026-04-26 18:50 32.73376 -117.19056 77 ft 51 kts 287°
2026-04-26 18:50 32.73494 -117.19551 154 ft 68 kts 287°
2026-04-26 18:50 32.73629 -117.20075 181 ft 87 kts 290°
2026-04-26 18:50 32.73847 -117.20838 71 ft 109 kts 291°
2026-04-26 18:51 32.74081 -117.21654 302 ft 90 kts 287°
2026-04-26 18:51 32.74307 -117.22352 382 ft 91 kts 307°
2026-04-26 18:51 32.74938 -117.22483 549 ft 102 kts 359°
2026-04-26 18:51 32.75652 -117.22368 685 ft 104 kts
2026-04-26 18:52 32.76360 -117.22227 866 ft 104 kts
2026-04-26 18:52 32.76951 -117.21715 1027 ft 119 kts 62°
2026-04-26 18:52 32.77018 -117.20721 1168 ft 125 kts 85°
2026-04-26 18:52 32.77160 -117.19695 1202 ft 131 kts 84°
2026-04-26 18:53 32.77112 -117.18590 1224 ft 136 kts 93°
2026-04-26 18:53 32.77020 -117.17458 1241 ft 139 kts 94°
2026-04-26 18:53 32.76900 -117.16314 1272 ft 140 kts 95°
2026-04-26 18:53 32.76772 -117.15139 1314 ft 146 kts 98°
2026-04-26 18:54 32.76560 -117.13932 1292 ft 152 kts 102°
2026-04-26 18:54 32.76206 -117.12733 1276 ft 156 kts 113°
2026-04-26 18:54 32.75770 -117.11557 1253 ft 156 kts 115°
2026-04-26 18:54 32.75317 -117.10392 1252 ft 155 kts 116°
2026-04-26 18:55 32.74857 -117.09238 1257 ft 154 kts 116°
2026-04-26 18:55 32.74395 -117.08089 1255 ft 154 kts 116°
2026-04-26 18:55 32.73789 -117.07083 1252 ft 149 kts 149°
2026-04-26 18:55 32.72838 -117.06888 1250 ft 135 kts 197°
2026-04-26 18:56 32.71961 -117.07176 1256 ft 126 kts 214°
2026-04-26 18:56 32.71574 -117.08015 1267 ft 119 kts 270°
2026-04-26 18:56 32.71650 -117.08994 1273 ft 118 kts 277°
2026-04-26 18:56 32.71757 -117.09948 1258 ft 115 kts 278°
2026-04-26 18:57 32.71884 -117.10875 1280 ft 116 kts 278°
2026-04-26 18:57 32.71978 -117.11515 1281 ft 115 kts 278°
2026-04-26 18:57 32.72131 -117.12493 1261 ft 71 kts 279°
2026-04-26 18:57 32.72233 -117.13103 1275 ft 86 kts 278°
2026-04-26 18:58 32.72358 -117.13864 1279 ft 101 kts 279°
2026-04-26 18:58 32.72487 -117.14716 1224 ft 109 kts 276°
2026-04-26 18:58 32.72628 -117.15704 824 ft 131 kts 276°
2026-04-26 18:58 32.72810 -117.16678 405 ft 140 kts 285°
2026-04-26 18:59 32.73065 -117.17762 62 ft 114 kts 286°
2026-04-26 18:59 32.73199 -117.18333 51 ft 50 kts 288°
2026-04-26 18:59 32.73271 -117.18605 20 ft 6 kts 284°
2026-04-26 18:59 32.73271 -117.18607 20 ft 0 kts 284°
2026-04-26 19:00 32.73314 -117.18724 19 ft 32 kts 287°
2026-04-26 19:00 32.73397 -117.19026 117 ft 38 kts 277°
2026-04-26 19:00 32.73484 -117.19443 158 ft 62 kts 282°
2026-04-26 19:00 32.73825 -117.19885 243 ft 82 kts 308°
2026-04-26 19:01 32.74308 -117.20346 318 ft 94 kts 315°
2026-04-26 19:01 32.74844 -117.20835 390 ft 99 kts 317°
2026-04-26 19:01 32.75390 -117.21370 485 ft 105 kts 317°
2026-04-26 19:01 32.75957 -117.21954 581 ft 110 kts 318°
2026-04-26 19:02 32.76543 -117.22553 659 ft 111 kts 317°
2026-04-26 19:02 32.77124 -117.23145 715 ft 109 kts 317°
2026-04-26 19:02 32.77704 -117.23732 816 ft 111 kts 318°
2026-04-26 19:02 32.78090 -117.24136 864 ft 112 kts 318°
2026-04-26 19:03 32.78849 -117.24929 969 ft 105 kts 318°
2026-04-26 19:03 32.79393 -117.25496 1100 ft 104 kts 318°
2026-04-26 19:03 32.79954 -117.26066 1227 ft 107 kts 319°
2026-04-26 19:03 32.80520 -117.26639 1313 ft 106 kts 318°
2026-04-26 19:04 32.81079 -117.27205 1406 ft 105 kts 319°
2026-04-26 19:04 32.81623 -117.27772 1512 ft 104 kts 319°
2026-04-26 19:04 32.82165 -117.28340 1632 ft 103 kts 319°
2026-04-26 19:04 32.82699 -117.28901 1768 ft 102 kts 319°
2026-04-26 19:05 32.83741 -117.29987 1982 ft 97 kts 319°
2026-04-26 19:05 32.84236 -117.30511 2100 ft 94 kts 319°
2026-04-26 19:05 32.84727 -117.31020 2239 ft 94 kts 313°
2026-04-26 19:06 32.85250 -117.31503 2370 ft 96 kts 314°
2026-04-26 19:06 32.85923 -117.31592 2445 ft 112 kts 16°
2026-04-26 19:06 32.86341 -117.30877 2540 ft 121 kts 76°
2026-04-26 19:06 32.86062 -117.29989 2641 ft 116 kts 140°
2026-04-26 19:07 32.85324 -117.29726 2714 ft 113 kts 177°
2026-04-26 19:07 32.84430 -117.29683 2175 ft 150 kts 181°
2026-04-26 19:07 32.83327 -117.29415 1426 ft 169 kts 168°
2026-04-26 19:07 32.82218 -117.28924 857 ft 171 kts 148°
2026-04-26 19:08 32.81292 -117.28103 592 ft 162 kts 144°
2026-04-26 19:08 32.80442 -117.27278 449 ft 153 kts 142°
2026-04-26 19:08 32.79564 -117.26687 396 ft 141 kts 165°
2026-04-26 19:08 32.78651 -117.26280 382 ft 139 kts 161°
2026-04-26 19:09 32.77763 -117.25861 371 ft 137 kts 159°
2026-04-26 19:09 32.76886 -117.25451 381 ft 134 kts 161°
2026-04-26 19:09 32.75993 -117.25273 377 ft 129 kts 177°
2026-04-26 19:09 32.75120 -117.25344 379 ft 127 kts 189°
2026-04-26 19:10 32.74252 -117.25376 378 ft 126 kts 184°
2026-04-26 19:10 32.73392 -117.25374 369 ft 108 kts 184°
2026-04-26 19:10 32.72729 -117.25302 372 ft 87 kts 188°
2026-04-26 19:10 32.72159 -117.25160 364 ft 90 kts 192°
2026-04-26 19:11 32.71613 -117.24987 539 ft 65 kts 219°
2026-04-26 19:11 32.71437 -117.25438 353 ft 72 kts 237°
2026-04-26 19:11 32.70769 -117.25559 255 ft 116 kts 178°
2026-04-26 19:11 32.70006 -117.25374 250 ft 100 kts 181°
2026-04-26 19:12 32.69441 -117.25107 280 ft 74 kts 171°